This is the latest recevied weather packets stored in our database for station/object PU5BHV. If no packets are shown the sender has not sent any weather packets the latest 10 day(s).
| Time | Temp. | Humidity | Pressure | Rain* | Wind** | Luminosity | Snow |
|---|---|---|---|---|---|---|---|
| 1778268974 | 22.22° C | 89% | 1007.1 hPa | 0 mm | - | 23 W/m² | - |
| 1778268670 | 22.22° C | 88% | 1007 hPa | 0 mm | - | 23 W/m² | - |
| 1778268367 | 22.22° C | 88% | 1007.3 hPa | 0 mm | - | 26 W/m² | - |
| 1778268064 | 22.22° C | 87% | 1007.2 hPa | 0 mm | - | 32 W/m² | - |
| 1778267760 | 22.22° C | 86% | 1007.3 hPa | 0 mm | - | 37 W/m² | - |
| 1778267457 | 22.22° C | 87% | 1006.9 hPa | 0 mm | - | 38 W/m² | - |
| 1778267154 | 22.22° C | 87% | 1007.2 hPa | 0 mm | - | 49 W/m² | - |
| 1778266851 | 22.22° C | 87% | 1007.3 hPa | 0 mm | - | 54 W/m² | - |
| 1778266548 | 22.22° C | 86% | 1007.6 hPa | 0 mm | - | 55 W/m² | - |
| 1778266245 | 22.22° C | 87% | 1007.9 hPa | 0 mm | - | 46 W/m² | - |
| 1778265943 | 22.22° C | 89% | 1007.8 hPa | 0 mm | - | 35 W/m² | - |
| 1778265639 | 22.22° C | 92% | 1007.7 hPa | 0 mm | - | 35 W/m² | - |
| 1778265336 | 22.22° C | 94% | 1007.9 hPa | 0 mm | - | 40 W/m² | - |
| 1778265032 | 22.22° C | 94% | 1007.9 hPa | 0 mm | - | 40 W/m² | - |
| 1778264729 | 22.22° C | 94% | 1008.5 hPa | 0 mm | - | 42 W/m² | - |
| 1778264425 | 22.22° C | 93% | 1007.9 hPa | 0 mm | - | 28 W/m² | - |
| 1778264120 | 22.22° C | 93% | 1007.9 hPa | 0 mm | - | 26 W/m² | - |
| 1778263819 | 22.22° C | 93% | 1007.8 hPa | 0 mm | - | 23 W/m² | - |
| 1778263515 | 22.78° C | 92% | 1008 hPa | 0 mm | - | 22 W/m² | - |
| 1778263211 | 22.78° C | 91% | 1008.3 hPa | 0 mm | - | 25 W/m² | - |
| 1778262908 | 22.78° C | 90% | 1008.2 hPa | 0 mm | - | 29 W/m² | - |
| 1778262605 | 22.78° C | 90% | 1008.3 hPa | 0 mm | - | 31 W/m² | - |
| 1778262303 | 22.78° C | 90% | 1008.2 hPa | 0 mm | - | 33 W/m² | - |
| 1778261999 | 22.78° C | 90% | 1008.3 hPa | 0 mm | - | 36 W/m² | - |
| 1778261697 | 22.78° C | 89% | 1008.3 hPa | 0 mm | - | 38 W/m² | - |
* Rain latest hour (hover to see other rain measurements)
** Current wind speed in m/s (hover to see current wind gust speed)